[[{"header":{"parameterUnit":"m.s-1","parameterCategory":1,"la1":30.2991,"la2":30.254,"lo1":-89.0895,"lo2":-89.0444,"dy":0.0017,"dx":0.0017,"nx":28,"ny":28,"refTime":"2024-07-21T09:00:00:Z","depth":0,"parameterNumber":2,"parameterNumberName":"U-component_of_WINDS"},"data":[0,0,0,0,0,0,0,0,0,0,0,0,0,0,0,0,0,0,0,0,0,0,0,0,0,0,0,0,0,0,0,0,0,0,0,0,0,0,0,0,0,0,0,0,0,0,0,0,0,0,0,0,0,0,0,0,0,0,0.5288,0.5288,0,0.5284,0.5284,0.5284,0.522,0.5219,0.5217,0.5215,0.5212,0.5213,0.5215,0,0,0,0,0,0,0,0,0,0,0,0,0,0.5239,0.5241,0.5288,0.5288,0.5287,0.5284,0.5284,0.5284,0.522,0.5218,0.5217,0.5215,0.5211,0.5213,0.5215,0,0,0,0,0,0,0,0,0,0,0,0,0,0.5251,0.5241,0.5288,0.5255,0.5252,0.5284,0.5284,0.5284,0.5221,0.5218,0.5216,0.5214,0.5211,0.5213,0.5215,0.5277,0,0,0.5221,0.5222,0,0,0,0,0,0,0,0,0.525,0.5252,0.526,0.5258,0.5254,0.525,0.5266,0.5282,0.5222,0.5233,0.5215,0.5213,0.5227,0.5227,0.5232,0.5277,0.5277,0.5222,0.5223,0.5224,0.5224,0,0,0,0,0,0,0,0.5249,0.5252,0.5286,0.526,0.5257,0.5241,0.524,0.5268,0.5243,0.5232,0.5227,0.5228,0.5224,0.523,0.5231,0.5277,0.5222,0.5223,0.5225,0.5226,0.5373,0.5376,0,0,0,0,0,0,0.5253,0.5252,0.5286,0.5286,0.5246,0.5244,0.5243,0.5254,0.5243,0.5239,0.523,0.5225,0.5228,0.5229,0.5231,0.5303,0.5224,0.5226,0.5227,0.5371,0.5374,0.5377,0,0,0,0,0,0,0.5252,0.5257,0.5286,0.5268,0.527,0.5247,0.5261,0.5255,0.5261,0.5241,0.5237,0.524,0.5226,0.5228,0.5266,0.5302,0.5227,0.5229,0.5368,0.5372,0.5375,0.5449,0,0,0,0,0,0,0.5251,0.5257,0.528,0.5269,0.5272,0.5322,0.5263,0.5257,0.5264,0.5258,0.525,0.5246,0.5224,0.5263,0.5268,0.5304,0.523,0.5364,0.537,0.5374,0.5443,0.5455,0.5465,0,0,0,0,0,0.525,0.5301,0.5282,0.5286,0.53,0.5324,0.5326,0.5299,0.5268,0.5291,0.5279,0.5246,0.5298,0.5268,0.5273,0.531,0.5362,0.5368,0.5374,0.5438,0.5452,0.5465,0,0,0,0,0,0,0.5316,0.5298,0.5277,0.5326,0.5327,0.5313,0.5342,0.5315,0.5325,0.5318,0.5285,0.5284,0.5328,0.5322,0.5289,0.537,0.5324,0.5331,0.5371,0.5385,0.5396,0.5396,0.5232,0,0,0,0,0,0.5337,0.5358,0.5341,0.5386,0.5387,0.5365,0.5374,0.5354,0.5353,0.5354,0.5344,0.5345,0.5361,0.5373,0.5387,0.5442,0.544,0.547,0.5481,0.549,0.5496,0.5526,0.5539,0.5396,0.5396,0.5396,0,0,0.5379,0.5372,0.5387,0.5399,0.5397,0.542,0.5365,0.5391,0.5408,0.5357,0.5393,0.5386,0.5385,0.5433,0.5453,0.543,0.5535,0.5497,0.5505,0.5506,0.5533,0.5547,0.5559,0.54,0.54,0.5399,0,0,0.5467,0.5464,0.5501,0.5501,0.55,0.5484,0.5494,0.5484,0.5478,0.5513,0.5476,0.5495,0.5524,0.5525,0.5529,0.562,0.559,0.5625,0.5682,0.5711,0.5722,0.5732,0.5764,0.5777,0.5632,0.5632,0.5632,0,0.552,0.5552,0.5524,0.5552,0.5559,0.5515,0.5553,0.5554,0.5557,0.5563,0.5537,0.5572,0.5568,0.5616,0.5638,0.5643,0.5652,0.5626,0.5723,0.5733,0.5741,0.5772,0.5784,0.5636,0.5636,0.5635,0.5635,0,0.5618,0.5641,0.5671,0.5676,0.5686,0.5719,0.5695,0.5709,0.5688,0.5676,0.5713,0.5707,0.5719,0.5729,0.5708,0.5774,0.5759,0.5729,0.5682,0.576,0.5788,0.5799,0.5642,0.5641,0.564,0.5639,0,0,0.5747,0.5736,0.5748,0.575,0.5745,0.5763,0.5794,0.5807,0.5819,0.5823,0.5849,0.5875,0.5847,0.5852,0.5831,0.5857,0.5929,0.5823,0.5823,0.5843,0.6001,0.6024,0.6038,0.591,0.5912,0.5914,0.6001,0,0.5833,0.5885,0.5861,0.5917,0.5938,0.5897,0.5925,0.5925,0.5915,0.5932,0.592,0.5939,0.59,0.5903,0.5927,0.5916,0.596,0.5909,0.5934,0.5935,0.5935,0.6052,0.6076,0.6159,0.6012,0.6014,0.6015,0,0.5939,0.5948,0.6006,0.5999,0.6007,0.6032,0.6042,0.6058,0.6058,0.6049,0.6055,0.6029,0.606,0.6014,0.6056,0.6022,0.603,0.6026,0.6029,0.603,0.5979,0.6056,0.6184,0.6197,0.6032,0.6031,0.6029,0,0.6028,0.6055,0.6093,0.6096,0.6088,0.6107,0.6105,0.6102,0.6112,0.612,0.6126,0.6138,0.6145,0.6155,0.6133,0.6102,0.6178,0.613,0.6171,0.6172,0.6188,0.6188,0.632,0.6195,0.6195,0.6194,0.6194,0,0.6126,0.6163,0.6133,0.6157,0.6197,0.6169,0.621,0.6203,0.6202,0.6223,0.6189,0.621,0.618,0.6198,0.6181,0.6219,0.6222,0.6215,0.621,0.6218,0.6219,0.6223,0.6217,0.6198,0.6197,0.6196,0.6196,0,0.6232,0.6213,0.6252,0.6242,0.6241,0.6271,0.6262,0.6284,0.6272,0.63,0.6304,0.6285,0.6305,0.6284,0.6302,0.6291,0.6341,0.6328,0.6341,0.6338,0.6379,0.6376,0.6518,0.6536,0.64,0.6402,0.6403,0,0.6295,0.6323,0.6317,0.6329,0.6329,0.6349,0.6358,0.6332,0.6343,0.6346,0.6367,0.6384,0.6396,0.643,0.6417,0.6431,0.6418,0.6467,0.642,0.6427,0.6419,0.6417,0.642,0.6477,0.6478,0.648,0.6481,0,0.6411,0.64,0.6415,0.6428,0.644,0.6448,0.6454,0.6466,0.6439,0.6453,0.6473,0.6483,0.6502,0.6519,0.653,0.6527,0.65,0.6496,0.6506,0.6514,0.6521,0.6518,0.6367,0.6492,0.6491,0.649,0.649,0.6489,0.6497,0.652,0.6519,0.6537,0.6539,0.6545,0.6565,0.6556,0.6572,0.6586,0.6569,0.6594,0.6594,0.6605,0.6606,0.6625,0.6604,0.6619,0.6623,0.6627,0.6633,0.6518,0.6627,0.6627,0.6626,0.6626,0.6626,0,0.661,0.6608,0.6625,0.6634,0.6649,0.6622,0.6627,0.6641,0.6664,0.6666,0.6679,0.6702,0.6719,0.6709,0.6723,0.674,0.6728,0.6745,0.6743,0.6743,0.6651,0.664,0.6755,0.6755,0.6755,0.6755,0.6755,0.6754,0.6671,0.6708,0.6698,0.6736,0.6734,0.6758,0.6763,0.6769,0.6771,0.6799,0.6813,0.6806,0.6803,0.6817,0.6832,0.6828,0.6835,0.6856,0.6848,0.6762,0.675,0.6737,0.6728,0.6858,0.6858,0.6939,0.694,0.694]},{"header":{"parameterUnit":"m.s-1","parameterCategory":1,"la1":30.2991,"la2":30.254,"lo1":-89.0895,"lo2":-89.0444,"dy":0.0017,"dx":0.0017,"nx":28,"ny":28,"refTime":"2024-07-21T09:00:00:Z","depth":0,"parameterNumber":3,"parameterNumberName":"V-component_of_WINDS"},"data":[0,0,0,0,0,0,0,0,0,0,0,0,0,0,0,0,0,0,0,0,0,0,0,0,0,0,0,0,0,0,0,0,0,0,0,0,0,0,0,0,0,0,0,0,0,0,0,0,0,0,0,0,0,0,0,0,0,0,0.1455,0.1456,0,0.1582,0.1583,0.1585,0.157,0.1568,0.1566,0.1564,0.1693,0.1698,0.1703,0,0,0,0,0,0,0,0,0,0,0,0,0,0.1198,0.1203,0.1455,0.1457,0.1458,0.1582,0.1584,0.1585,0.1571,0.1568,0.1566,0.1563,0.1691,0.1697,0.1704,0,0,0,0,0,0,0,0,0,0,0,0,0,0.1316,0.1205,0.1455,0.1466,0.1468,0.1581,0.1584,0.1586,0.1571,0.1568,0.1565,0.1562,0.1689,0.1697,0.1705,0.1815,0,0,0.1729,0.1732,0,0,0,0,0,0,0,0,0.1309,0.1325,0.1463,0.1465,0.1468,0.1557,0.154,0.1663,0.1572,0.1532,0.1564,0.1561,0.165,0.1661,0.1692,0.1821,0.1826,0.173,0.1735,0.1738,0.174,0,0,0,0,0,0,0,0.1301,0.132,0.1505,0.1464,0.1468,0.1464,0.1477,0.1563,0.1606,0.1535,0.1534,0.155,0.1651,0.1684,0.1694,0.1828,0.1729,0.1737,0.1741,0.1745,0.2055,0.2058,0,0,0,0,0,0,0.129,0.1313,0.1501,0.1509,0.1379,0.1471,0.1486,0.1532,0.1605,0.1614,0.1552,0.1548,0.1672,0.1685,0.1699,0.1834,0.1738,0.1745,0.175,0.2051,0.2055,0.2059,0,0,0,0,0,0,0.1285,0.1307,0.1496,0.1411,0.1435,0.1479,0.153,0.1536,0.1569,0.1618,0.1626,0.1578,0.167,0.1688,0.1786,0.1838,0.1749,0.1756,0.2047,0.2052,0.2057,0.2104,0,0,0,0,0,0,0.1278,0.1305,0.1348,0.1412,0.1439,0.1582,0.1533,0.154,0.1583,0.1579,0.1645,0.1653,0.1669,0.1775,0.1794,0.1847,0.1762,0.2043,0.2049,0.2056,0.2098,0.211,0.212,0,0,0,0,0,0.1268,0.1356,0.1351,0.1373,0.1494,0.1585,0.1601,0.1618,0.1587,0.163,0.1662,0.165,0.1829,0.1785,0.1807,0.1863,0.204,0.2048,0.2055,0.2093,0.2108,0.212,0,0,0,0,0,0,0.1297,0.1365,0.1359,0.147,0.1522,0.1583,0.1638,0.1633,0.1695,0.1689,0.1707,0.1722,0.1822,0.1852,0.1802,0.1974,0.193,0.1942,0.1951,0.1965,0.1976,0.1968,0.1769,0,0,0,0,0,0.1316,0.1385,0.144,0.1532,0.1559,0.1594,0.1634,0.1643,0.1697,0.1719,0.1758,0.1811,0.1879,0.1923,0.1988,0.2101,0.2116,0.2151,0.2162,0.2171,0.2182,0.2245,0.2261,0.2085,0.2085,0.2084,0,0,0.1356,0.1402,0.1444,0.1539,0.1581,0.1652,0.1612,0.1689,0.1742,0.1731,0.1827,0.1857,0.1917,0.2024,0.2072,0.2052,0.2234,0.2181,0.2187,0.2194,0.2254,0.2271,0.2286,0.209,0.2089,0.2088,0,0,0.1467,0.1508,0.159,0.1632,0.1695,0.1717,0.1737,0.1798,0.1818,0.1915,0.1908,0.197,0.2087,0.213,0.2167,0.2293,0.2285,0.2313,0.2373,0.2433,0.2447,0.246,0.2506,0.2522,0.2324,0.2324,0.2324,0,0.1509,0.1616,0.1632,0.171,0.1752,0.1745,0.1828,0.1868,0.1949,0.1978,0.1954,0.21,0.214,0.2257,0.2287,0.2317,0.234,0.2307,0.2444,0.2457,0.2468,0.2513,0.253,0.2327,0.2327,0.2327,0.2326,0,0.1666,0.174,0.1798,0.1878,0.1926,0.2006,0.2034,0.208,0.2084,0.2109,0.2208,0.2255,0.233,0.2358,0.2362,0.2475,0.2461,0.244,0.2396,0.2488,0.253,0.2547,0.2332,0.2331,0.233,0.2329,0,0,0.18,0.1886,0.1907,0.1944,0.2012,0.207,0.2149,0.2222,0.2263,0.2318,0.2385,0.2483,0.2465,0.2507,0.2516,0.2569,0.2666,0.2541,0.2543,0.2564,0.2795,0.2812,0.2831,0.266,0.2664,0.2666,0.279,0,0.1918,0.206,0.2076,0.2202,0.2271,0.2264,0.2333,0.2382,0.2407,0.2469,0.2496,0.2566,0.2535,0.2561,0.2612,0.2644,0.2713,0.2634,0.2724,0.2727,0.2711,0.2853,0.2871,0.2986,0.2807,0.2809,0.2811,0,0.2076,0.2137,0.227,0.2329,0.2359,0.2421,0.2489,0.2548,0.2603,0.2618,0.2665,0.2666,0.2748,0.2699,0.2811,0.2757,0.2794,0.2815,0.282,0.283,0.2776,0.2869,0.3023,0.3041,0.2837,0.2835,0.2833,0,0.2162,0.2277,0.2372,0.2402,0.2473,0.2517,0.2549,0.2601,0.2644,0.2704,0.2732,0.2799,0.2837,0.2889,0.2909,0.2872,0.302,0.2973,0.3035,0.3035,0.3069,0.3067,0.3233,0.3089,0.3089,0.3088,0.3088,0,0.2294,0.2376,0.2412,0.247,0.2562,0.2579,0.2668,0.2698,0.2744,0.2808,0.2805,0.2865,0.2886,0.2949,0.2965,0.3056,0.3072,0.3086,0.309,0.3088,0.3086,0.3114,0.3107,0.3093,0.3092,0.3091,0.309,0,0.2408,0.2434,0.2537,0.2596,0.2612,0.2677,0.2727,0.2783,0.2807,0.2887,0.2907,0.2944,0.3018,0.3042,0.3131,0.3141,0.3248,0.3243,0.323,0.3231,0.3292,0.3286,0.3483,0.351,0.3347,0.3348,0.335,0,0.2491,0.2554,0.262,0.2662,0.2696,0.2764,0.2809,0.2827,0.2873,0.294,0.2988,0.3062,0.3122,0.324,0.3274,0.3342,0.334,0.3404,0.335,0.3346,0.3343,0.334,0.3347,0.3415,0.3417,0.3418,0.3419,0,0.2637,0.2647,0.2711,0.2781,0.2833,0.2888,0.2941,0.2976,0.3002,0.3054,0.313,0.3176,0.3267,0.334,0.3409,0.344,0.3435,0.3435,0.3454,0.3453,0.3444,0.3451,0.3259,0.3431,0.343,0.3429,0.3429,0.3428,0.2739,0.2795,0.285,0.2922,0.2964,0.3013,0.3069,0.31,0.3163,0.324,0.3246,0.3328,0.3381,0.3473,0.3508,0.3572,0.3553,0.3579,0.3586,0.3593,0.3599,0.3431,0.3584,0.3583,0.3583,0.3583,0.3583,0,0.2887,0.2922,0.2987,0.3062,0.3118,0.3107,0.3165,0.3213,0.3285,0.3335,0.3394,0.3481,0.3551,0.3591,0.3661,0.3704,0.3703,0.3722,0.372,0.3728,0.361,0.3588,0.3722,0.3722,0.3722,0.3722,0.3722,0.3722,0.297,0.3065,0.3081,0.3196,0.323,0.3311,0.3346,0.3391,0.3431,0.3529,0.3588,0.3613,0.3658,0.3731,0.3795,0.3805,0.3831,0.3853,0.3861,0.375,0.3736,0.3723,0.3702,0.3858,0.3858,0.3974,0.3975,0.3975]}]]